Погода в Нуммела

Финляндия     60°20′30″N   24°19′57″E
темп.,
°C
ветер,
м/с
пор.,
м/с
влажн.,
%
обл.,
%
осадки,
мм/ч
давл.,
гПа
погр.,
м
25 июня, сб
сб2500:00+15зюз12765 0.0 101813
03:00+13юз11715 0.0 101913
06:00+15юз13761 0.0 101978
09:00+22зюз124854 0.0 1019473
12:00+26юз23375 0.0 10191232
15:00+27ююз43385 0.0 10191292
18:00+27юз34390 0.0 10191095
21:00+22юз24620 0.0 102083
26 июня, вс
вс2600:00+17юз11734 0.0 102111
03:00+15з11755 0.0 102111
06:00+17с00715 0.0 102213
09:00+25ю12483 0.0 1022401
12:00+28ююз23385 0.0 10221319
15:00+29ююз443845 0.0 10211703
18:00+29юз34405 0.0 10211442
21:00+24зюз24635 0.0 102197
27 июня, пн
пн2700:00+19зюз11800 0.0 102211
03:00+18з11845 0.0 102311
06:00+20в00777 0.0 102318
09:00+25ююв125444 0.0 1023479
12:00+27ю3348100 0.0 1023914
15:00+29ю354428 0.0 10221594
18:00+28ю33478 0.0 1022940
21:00+23ю23695 0.0 102264
28 июня, вт
вт2800:00+19зюз11796 0.0 102311
03:00+20ссв117448 0.0 102321
06:00+19в237899 0.1 102479
09:00+24вюв365999 0.1 1024426
12:00+25юв465446 0.2 1024662
15:00+23юв366211 0.4 1024321
18:00+27вюв45492 0.0 1023835
21:00+22в386660 0.0 1023311
29 июня, ср
ср2900:00+17в397712 0.0 1023223
03:00+16в38824 0.0 1023199
06:00+16всв23963 1.3 1023101
09:00+22вюв35782 1.4 1023391
12:00+26юв45560 0.0 1023851
15:00+28юв45490 0.0 10231170
18:00+27вюв46470 0.0 1022722
21:00+22в38600 0.0 1022270